AirNav   Everest Fuels
 
 660 users online  

34NH Stone Song Heliport
Milford, New Hampshire, USA

GOING TO MILFORD?


FAA INFORMATION EFFECTIVE 16 JULY 2020

Location

FAA Identifier: 34NH
Lat/Long: 42-48-53.0400N 071-39-39.9000W
42-48.884000N 071-39.665000W
42.8147333,-71.6610833
(estimated)
Elevation: 360 ft. / 110 m (estimated)
From city: 2 miles SW of MILFORD, NH
Time zone: UTC -4 (UTC -5 during Standard Time)
Zip code: 03055

Heliport Operations

Heliport use: Private use. Permission required prior to landing
Activation date: 06/2006
Control tower: no
ARTCC: BOSTON CENTER
FSS: BANGOR FLIGHT SERVICE STATION
Attendance: UNATNDD
Wind indicator: yes
Segmented circle: no

Heliport Communications

WX AWOS-3PT at ASH (7 nm E): 125.1 (603-578-0473)
WX ASOS at MHT (12 nm NE): 119.55 (603-621-1766)
WX ASOS at AFN (15 nm W): 135.875 (603-532-6195)
WX ASOS at FIT (16 nm S): 135.175 (978-343-9121)

Nearby radio navigation aids

VOR radial/distance  VOR name  Freq  Var
MHTr271/13.2MANCHESTER VOR/DME114.4015W
GDMr061/23.8GARDNER VOR/DME110.6014W
CONr204/24.6CONCORD VOR/DME112.9015W
LWMr295/25.3LAWRENCE VOR/DME112.5015W
EENr101/27.8KEENE VORTAC109.4014W
PSMr262/39.8PEASE VOR/DME116.5016W

 
NDB name  Hdg/Dist  Freq  Var  ID
FITZY258/6.520915WMJ -- .---

Heliport Services

Runway Information

Helipad H1

Dimensions: 200 x 80 ft. / 61 x 24 m
Surface: turf
Traffic pattern: leftleft

Heliport Ownership and Management from official FAA records

Ownership: Privately-owned
Owner: STEPHEN TALARICO
162 ARMORY ROAD
MILFORD, NH 03055
Phone 603-673-1944
Manager: STEPHEN TALARICO
162 ARMORY ROAD
MILFORD, NH 03055
Phone 603-673-1944

Additional Remarks

OWNER DESIRES HELIPORT NOT BE CHARTED.
FOR CD CTC BOSTON APCH AT 603-594-5551.

Instrument Procedures

There are no published instrument procedures at 34NH.

Some nearby airports with instrument procedures:

KASH - Boire Field Airport (7 nm E)
KMHT - Manchester Airport (12 nm NE)
KAFN - Jaffrey Airport-Silver Ranch (15 nm W)
KFIT - Fitchburg Municipal Airport (16 nm S)
6B6 - Minute Man Air Field (22 nm S)
 
Loc | Ops | Rwys | IFR | FBO | Links
Com | Nav | Svcs | Stats | Notes
Area around 34NH (Stone Song Heliport)
 
Road maps at: MapQuest Bing Google
 
Aerial photo
No photo
 
Sectional chart

 
Airport distance calculator
Flying to Stone Song Heliport? Find the distance to fly.

From to 34NH

Sunrise and sunset
Times for 03-Aug-2020
 Local
(UTC-4)
 Zulu
(UTC)
Morning civil twilight05:1009:10
Sunrise05:4209:42
Sunset20:0300:03
Evening civil twilight20:3500:35

Current date and time
Zulu (UTC)  03-Aug-2020 11:36:14
Local (UTC-4)  03-Aug-2020 07:36:14
 
METAR
KASH 
7nm SE 
031056Z VRB04KT 10SM CLR 26/25 A2989 RMK AO2 SLP123 T02560250
KMHT 
12nm NE 
031053Z 20006KT 10SM FEW150 BKN250 26/23 A2986 RMK AO2 SLP119 T02610233
KAFN 
15nm W 
031052Z AUTO VRB06KT 10SM CLR 23/21 A2992 RMK AO2 SLP131 T02330206
KFIT 
16nm S 
031052Z AUTO 19007KT 10SM CLR 26/21 A2990 RMK AO2 SLP123 T02560211
TAF
KMHT 
12nm NE 
030857Z 0309/0406 20008KT P6SM SCT080 FM031400 27010G20KT P6SM SCT050 BKN250 FM040000 VRB03KT P6SM BKN200
NOTAMs
Click for the latest NOTAMs
NOTAMs are issued by the DoD/FAA and will open in a separate window not controlled by AirNav.

 

 
 

Would you like to see your business listed on this page?

 If your business provides an interesting product or service to pilots, flight crews, aircraft, or users of the Stone Song Heliport, you should consider listing it here.  To start the listing process, click on the button below
 
Add a business
 

Other Pages about Stone Song Heliport

Update a link
 
Copyright © AirNav, LLC. All rights reserved. Privacy Policy  Contact